EHI
3 3 3 3 3 4 4 4 5 6 6 6 5 4 3 1 0 1 3 6 7 6 4 3 3 2 2 4 4 5 4 5 5 5 4 4 4 4 2 1 1 1 0
1 2 3 3 3 3 3 4 4 5 6 6 6 5 4 2 1 1 2 4 7 7 4 2 2 2 3 4 6 8 8 7 6 5 4 4 3 1 1 2 2 2 1
0 1 3 3 2 2 2 3 3 4 5 6 6 6 6 5 3 2 2 3 5 6 5 3 3 4 4 4 6 9 9 9 7 4 4 4 2 1 1 3 3 3 3
0 1 2 2 2 2 2 3 4 4 4 5 6 6 7 7 6 4 2 3 5 5 4 4 4 4 5 5 6 7 7 8 7 5 4 4 3 2 3 3 3 3 2
3 3 3 3 3 4 4 4 5 4 4 4 5 6 7 8 9 7 5 5 7 6 4 4 4 5 6 6 6 6 6 8 8 5 3 4 3 3 3 3 3 1 1
7 7 6 5 4 5 6 5 4 4 4 4 5 7 8 10 11 10 8 6 6 5 4 5 6 7 7 6 6 6 6 7 7 5 4 3 3 3 3 3 2 1 0
7 7 5 4 4 5 6 5 4 3 4 6 7 8 9 10 11 11 9 6 4 3 4 5 7 9 8 6 5 5 5 6 6 5 5 4 3 3 3 3 2 1 0
5 5 4 3 4 5 6 6 5 5 5 7 9 9 9 10 10 10 8 6 3 2 1 3 6 9 9 7 5 5 4 5 4 4 4 4 3 3 3 2 1 0 0
5 4 4 4 4 5 7 8 7 7 8 9 10 10 9 8 8 8 7 5 4 2 1 1 3 6 8 7 6 5 3 3 3 3 2 2 1 1 2 1 1 0 0
7 7 7 7 6 6 8 9 9 9 10 12 13 12 10 9 7 6 5 4 5 4 2 0 0 2 4 6 6 4 1 1 1 2 1 1 2 2 1 1 1 0 0
8 8 9 10 9 8 9 10 12 11 11 12 13 13 13 11 8 6 5 4 4 3 2 1 1 0 1 3 4 2 0 0 0 0 0 1 4 4 3 2 2 1 1
9 9 10 12 13 12 11 12 14 13 11 11 12 13 14 13 10 9 7 5 3 3 2 2 2 1 0 1 2 1 0 0 0 0 0 1 3 4 4 3 2 2 2
10 10 11 14 16 15 14 13 13 12 11 11 12 12 12 11 10 10 8 5 2 2 3 3 2 1 0 0 1 1 0 0 0 0 0 0 1 1 1 1 1 1 1
10 10 11 13 15 15 15 15 13 12 13 12 11 10 10 9 8 9 9 6 3 2 3 3 1 0 0 1 1 2 2 1 0 0 0 0 0 0 0 0 0 0 0
11 11 10 10 11 13 15 15 14 14 15 14 11 11 9 7 7 8 9 9 6 4 3 3 2 1 0 1 2 4 3 1 0 0 0 0 0 0 0 0 0 0 0
12 11 10 9 9 10 11 11 12 14 16 15 13 12 10 8 7 9 10 11 11 7 4 3 3 3 2 2 1 3 3 2 1 0 0 0 0 0 0 0 0 0 0
11 10 10 10 9 8 8 8 9 11 13 14 13 12 11 10 9 9 9 10 10 8 5 3 3 4 5 3 2 3 4 4 3 1 0 0 0 0 0 0 0 0 0
10 9 9 9 8 7 7 9 10 10 11 12 12 11 11 12 12 10 7 6 6 7 6 4 3 6 6 5 4 6 6 6 5 2 0 0 0 0 0 0 0 0 0
12 11 10 9 8 7 8 10 11 11 11 12 12 11 11 13 13 11 8 6 5 5 6 5 5 7 8 7 8 9 10 9 6 2 0 0 0 0 0 0 0 0 0
12 12 12 11 9 9 10 11 12 11 11 11 9 8 8 10 11 11 10 10 9 8 8 7 7 8 9 9 9 11 13 12 9 6 3 1 0 0 0 0 0 0 0
8 9 10 10 8 8 9 10 10 9 8 8 7 5 4 6 7 7 8 10 11 11 11 10 9 9 9 10 10 11 13 14 11 9 7 6 3 2 1 0 0 0 0
8 8 9 8 6 5 5 5 6 6 6 7 7 6 5 5 5 5 5 6 7 9 11 12 11 10 10 11 11 11 13 13 11 10 10 9 8 6 4 2 0 0 0
10 10 9 8 6 4 3 2 2 5 6 7 8 8 7 5 5 5 4 4 5 6 8 10 12 11 10 11 12 12 14 14 12 11 11 10 9 7 5 3 1 0 0
11 10 9 9 8 6 3 1 1 4 7 8 10 10 8 6 5 5 6 6 7 7 6 6 9 9 8 10 11 12 14 15 14 12 12 10 8 6 4 3 2 1 0
10 10 9 10 10 7 4 1 2 5 8 10 11 10 8 6 5 5 6 8 8 8 6 5 5 5 5 6 8 10 13 14 14 12 11 10 9 7 5 4 2 1 0
9 9 9 11 11 9 4 1 2 7 10 12 12 10 7 6 5 5 7 8 8 7 6 5 4 3 4 4 5 9 13 14 13 11 10 11 10 9 7 5 2 0 0
Wind_Speed
2 1 1 1 2 1 3 3 3 3 3 4 4 3 3 3 3 3 2 5 6 7 7 7 7 7 7 7 9 10 9 9 10 10 10 10 10 9 10 10 10 9 9
2 2 2 2 2 2 1 2 3 3 3 2 3 3 4 3 3 3 3 4 7 7 8 8 7 7 7 7 8 10 10 9 9 9 9 9 9 9 9 9 10 10 9
3 3 2 2 2 2 3 3 3 3 3 3 3 3 3 3 3 3 4 3 4 7 8 8 7 7 6 7 8 9 9 9 9 9 9 9 9 9 10 10 9 9 9
3 3 2 2 1 2 3 2 3 2 2 2 2 2 2 2 4 4 4 4 3 3 6 8 7 7 7 7 7 8 9 9 9 9 9 9 9 9 10 10 9 9 9
3 4 3 2 3 2 2 3 1 2 2 2 2 3 2 3 3 4 4 4 4 4 4 6 8 7 7 7 8 8 8 8 9 9 9 9 9 9 9 9 9 9 8
3 4 3 3 3 3 2 2 2 3 3 3 3 2 2 3 3 3 4 4 4 5 5 4 5 7 9 8 8 8 8 8 8 9 9 9 9 9 9 9 9 9 9
3 3 3 2 3 3 3 4 4 4 4 2 3 2 3 4 3 3 3 3 3 3 3 4 4 3 5 10 9 8 8 8 7 8 8 8 9 9 9 9 9 9 9
3 3 3 3 3 3 4 4 4 4 3 3 3 3 3 3 4 3 3 3 3 3 4 4 3 4 4 4 7 10 9 8 8 7 8 8 8 9 10 10 10 9 9
3 3 3 3 3 4 3 4 5 5 4 3 3 3 2 1 0 2 3 3 2 2 3 3 4 4 4 4 5 9 9 8 8 8 8 8 8 8 8 9 9 9 10
2 2 2 3 3 3 3 4 4 4 4 3 3 3 3 2 2 2 3 3 3 3 3 3 3 4 5 4 4 5 8 8 8 8 7 8 8 8 8 8 9 9 9
1 1 1 2 2 3 3 3 2 3 3 3 3 2 3 3 4 3 2 2 3 3 3 4 3 3 4 4 4 6 8 7 7 7 7 7 8 8 8 8 8 8 8
1 1 2 2 2 2 2 3 3 4 4 4 3 3 3 3 3 4 4 3 3 2 2 2 3 3 4 4 5 7 8 7 7 6 6 7 7 7 7 7 8 8 7
1 1 1 1 2 1 2 3 3 3 3 4 4 4 3 4 3 4 4 4 4 3 3 3 3 3 4 4 4 7 7 7 7 7 6 6 7 7 6 6 6 6 6
1 0 1 1 1 2 2 2 2 3 2 3 3 3 3 4 4 4 4 4 4 4 4 3 3 4 3 3 4 7 6 8 8 7 7 7 7 7 6 6 5 5 5
1 1 1 1 1 1 2 2 2 2 2 3 3 3 4 3 4 4 4 5 5 5 4 3 3 3 3 3 4 5 4 7 8 7 7 7 7 7 7 6 6 5 5
1 2 2 1 1 1 1 2 2 1 2 2 2 3 3 3 3 3 4 4 4 5 4 2 3 3 3 3 5 5 4 7 8 8 8 8 8 8 7 7 7 7 6
2 3 2 2 2 2 2 2 3 2 3 3 3 3 3 4 3 3 3 3 4 4 5 3 3 3 3 4 3 4 5 6 6 9 9 9 8 8 8 7 7 7 7
3 2 2 2 3 2 3 3 3 3 3 3 3 3 3 3 3 3 3 4 4 4 5 5 4 4 5 5 4 5 5 5 4 8 9 9 9 8 8 8 8 7 7
3 3 3 3 3 3 3 3 4 3 3 3 3 3 3 3 3 3 4 4 4 4 4 5 4 3 4 4 4 5 5 3 5 7 10 10 9 9 9 8 7 7 7
3 3 3 3 3 3 3 3 3 3 3 3 3 3 3 3 3 4 4 4 4 4 4 5 4 4 4 4 4 4 4 4 4 4 5 6 9 11 10 10 9 8 8
2 3 3 3 3 3 2 2 3 3 3 4 4 4 3 3 3 4 4 3 4 4 4 4 4 4 4 4 5 4 4 4 4 4 4 5 6 7 9 11 11 10 9
1 2 3 3 3 2 2 2 4 4 4 4 4 4 4 4 4 4 4 4 4 5 5 5 4 4 4 5 4 4 4 5 4 3 4 5 5 5 5 6 8 10 10
1 1 2 2 2 0 1 1 4 6 5 4 4 5 5 3 3 4 4 6 6 7 7 7 6 6 5 4 4 6 5 5 5 3 4 6 5 5 5 5 10 10 10
1 1 2 2 2 1 1 2 5 7 5 5 5 5 5 4 3 3 5 4 5 5 6 7 6 6 5 4 5 6 5 6 6 5 5 6 5 5 4 4 11 11 10
2 2 2 2 2 1 1 1 4 6 5 5 5 5 5 5 1 3 5 5 5 5 5 6 6 6 6 6 6 5 6 6 6 5 5 5 5 4 4 4 7 12 11
2 3 2 2 2 2 2 1 4 5 4 5 4 5 4 4 2 3 5 5 6 5 6 5 6 7 8 8 8 8 7 7 6 5 4 5 5 4 4 4 3 5 6
Wind_Direction
202 201 229 241 234 218 203 214 232 230 226 221 225 224 230 228 239 235 178 172 193 206 214 220 221 215 211 204 204 206 207 207 203 204 203 199 198 197 195 195 194 192 193
207 215 216 227 234 228 234 234 228 231 233 227 227 232 241 230 227 237 234 191 192 206 215 220 222 218 215 207 209 209 206 203 198 196 195 194 195 197 194 196 196 195 198
209 228 231 228 222 222 217 225 225 222 217 215 218 225 227 234 230 234 239 235 207 199 207 216 220 218 219 214 210 203 202 203 201 197 196 194 194 196 198 198 198 198 198
227 237 240 241 236 232 226 217 226 221 219 222 214 228 220 216 228 231 230 228 232 211 195 201 212 214 216 214 215 210 204 202 203 198 197 196 197 197 198 196 198 201 201
227 234 243 245 241 236 235 239 201 237 221 228 213 205 213 216 221 223 223 223 222 228 219 183 197 206 210 211 210 207 204 202 200 196 197 196 196 196 197 197 197 199 202
225 238 229 230 239 231 232 230 218 227 239 240 246 215 223 216 213 209 219 212 214 222 224 214 199 194 199 207 206 202 197 194 194 194 195 195 195 194 196 197 197 200 204
223 233 250 220 238 233 237 229 227 216 225 227 239 225 213 212 207 206 215 216 202 212 214 217 229 217 187 192 199 198 197 196 193 192 192 194 195 196 200 200 199 201 205
231 222 236 238 230 233 226 226 224 241 227 214 246 240 221 196 200 201 198 205 207 208 211 206 211 217 232 199 173 187 195 198 198 199 197 194 193 197 202 202 203 206 210
231 253 233 244 239 241 223 223 222 229 233 220 231 260 264 253 189 185 211 212 215 227 223 206 210 207 218 216 186 178 186 194 199 202 203 200 198 196 199 203 207 211 212
220 226 230 230 244 249 237 236 223 233 238 230 210 240 272 305 271 227 204 200 212 228 240 236 216 204 209 207 181 166 175 190 200 204 205 206 204 200 199 204 212 216 216
220 236 235 237 235 247 247 258 250 246 238 246 238 229 231 233 243 252 249 245 232 226 221 229 228 218 208 208 198 170 170 188 197 205 209 210 207 201 201 207 216 220 220
199 209 224 231 241 250 243 244 246 236 247 249 250 242 232 232 236 242 251 248 248 237 226 236 235 223 213 208 192 147 169 186 196 205 211 212 211 205 203 211 218 221 221
206 188 242 237 256 256 252 244 238 254 247 246 246 249 248 246 251 256 261 266 265 251 229 226 223 224 220 207 173 157 179 187 197 205 212 216 212 206 205 210 213 216 217
284 331 232 232 237 248 253 242 238 236 237 246 254 262 261 255 252 252 256 263 264 253 229 226 212 214 218 209 159 190 186 182 195 203 210 213 203 201 204 206 208 211 215
243 234 245 240 234 236 255 252 241 250 245 245 250 248 260 263 261 261 258 260 261 262 244 216 226 209 211 209 172 206 209 172 185 197 205 202 198 199 202 204 204 207 211
265 262 252 250 244 245 256 264 243 240 249 253 256 261 263 265 266 263 264 256 251 257 265 244 226 216 213 213 183 217 216 168 186 196 199 199 198 199 201 203 204 207 211
245 245 245 250 254 253 251 248 255 244 245 250 251 245 255 270 270 261 256 251 245 242 247 249 240 225 211 236 200 223 220 214 189 185 192 196 198 200 203 205 206 208 210
237 233 236 246 253 256 256 252 255 253 247 245 250 255 258 258 264 267 261 250 245 241 240 240 233 222 217 225 222 232 230 219 213 172 185 194 199 200 202 206 207 207 209
233 236 233 243 256 260 257 257 260 266 264 257 255 256 265 266 259 265 260 251 248 243 236 236 235 223 220 220 222 229 233 230 233 178 182 190 196 199 201 203 206 206 208
243 251 251 249 253 258 262 262 258 261 268 267 261 257 259 263 273 278 260 247 247 247 234 237 235 225 218 212 223 230 226 213 234 217 194 190 188 195 202 204 205 206 207
260 251 250 249 251 248 264 284 275 261 262 266 263 262 261 266 297 292 288 270 246 238 239 238 237 233 223 213 225 233 236 234 222 229 219 205 197 205 199 201 204 205 206
280 253 242 249 257 278 45 331 289 276 267 264 266 266 256 234 239 243 266 271 268 250 248 248 247 240 234 232 235 238 240 243 237 206 237 234 217 219 214 210 181 186 199
280 289 277 265 263 299 68 286 282 276 268 269 269 268 271 272 264 262 238 231 241 248 252 258 255 254 246 243 249 246 245 252 258 241 233 246 225 229 225 193 166 182 197
254 269 283 288 274 255 151 260 275 261 267 265 264 264 268 269 272 286 274 263 256 245 241 240 253 259 260 260 246 250 254 245 249 243 233 249 235 232 229 200 166 181 194
262 261 260 272 272 255 122 261 277 265 260 261 260 258 262 261 260 276 266 264 267 265 240 230 245 259 269 259 249 247 243 245 247 236 219 242 248 241 230 218 176 178 191
266 273 279 280 281 294 98 83 289 272 271 269 257 247 231 250 247 246 256 260 261 269 277 256 233 238 243 237 224 235 246 246 250 248 215 225 243 244 241 221 209 186 197